Time,TemperatureF,DewpointF,PressureIn,WindDirection,WindDirectionDegrees,WindSpeedMPH,WindSpeedGustMPH,Humidity,HourlyPrecipIn,Conditions,Clouds,dailyrainin,SolarRadiationWatts/m^2,SoftwareType,DateUTC
2013-02-19 00:01:00,25.0,22.0,-100.00,North,360,8.0,14.0,90,0.00,,,-99.99,0.000000,,2013-02-19 06:01:00,
2013-02-19 00:33:00,25.0,22.0,-100.00,North,360,8.0,14.0,90,0.00,,,-99.99,0.000000,,2013-02-19 06:33:00,
2013-02-19 00:42:00,25.0,22.0,-100.00,North,360,8.0,14.0,90,0.00,,,-99.99,0.000000,,2013-02-19 06:42:00,
2013-02-19 00:52:00,25.0,22.0,-100.00,North,360,8.0,14.0,90,0.00,,,-99.99,0.000000,,2013-02-19 06:52:00,
2013-02-19 01:01:00,22.0,19.0,-100.00,North,3,10.0,20.0,88,0.00,,,0.00,0.000000,,2013-02-19 07:01:00,
2013-02-19 01:32:00,22.0,19.0,-100.00,North,3,10.0,20.0,88,0.00,,,0.00,0.000000,,2013-02-19 07:32:00,
2013-02-19 01:42:00,22.0,19.0,-100.00,North,3,10.0,20.0,88,0.00,,,0.00,0.000000,,2013-02-19 07:42:00,
2013-02-19 01:52:00,22.0,19.0,-100.00,North,3,10.0,20.0,88,0.00,,,0.00,0.000000,,2013-02-19 07:52:00,
2013-02-19 02:01:00,18.0,15.0,-100.00,North,3,11.0,21.0,86,0.00,,,0.00,0.000000,,2013-02-19 08:01:00,
2013-02-19 02:32:00,18.0,15.0,-100.00,North,3,11.0,21.0,86,0.00,,,0.00,0.000000,,2013-02-19 08:32:00,
2013-02-19 02:42:00,18.0,15.0,-100.00,North,3,11.0,21.0,86,0.00,,,0.00,0.000000,,2013-02-19 08:42:00,
2013-02-19 02:52:00,18.0,15.0,-100.00,North,3,11.0,21.0,86,0.00,,,0.00,0.000000,,2013-02-19 08:52:00,
2013-02-19 03:01:00,16.0,13.0,-100.00,North,354,10.0,20.0,86,0.00,,,0.00,0.000000,,2013-02-19 09:01:00,
2013-02-19 03:32:00,16.0,13.0,-100.00,North,354,10.0,20.0,86,0.00,,,0.00,0.000000,,2013-02-19 09:32:00,
2013-02-19 03:42:00,16.0,13.0,-100.00,North,354,10.0,20.0,86,0.00,,,0.00,0.000000,,2013-02-19 09:42:00,
2013-02-19 03:53:00,16.0,13.0,-100.00,North,354,10.0,20.0,86,0.00,,,0.00,0.000000,,2013-02-19 09:53:00,
2013-02-19 04:01:00,12.0,8.0,-100.00,NNW,339,11.0,21.0,84,0.00,,,0.00,0.000000,,2013-02-19 10:01:00,
2013-02-19 04:32:00,12.0,8.0,-100.00,NNW,339,11.0,21.0,84,0.00,,,0.00,0.000000,,2013-02-19 10:32:00,
2013-02-19 04:42:00,12.0,8.0,-100.00,NNW,339,11.0,21.0,84,0.00,,,0.00,0.000000,,2013-02-19 10:42:00,
2013-02-19 04:52:00,12.0,8.0,-100.00,NNW,339,11.0,21.0,84,0.00,,,0.00,0.000000,,2013-02-19 10:52:00,
2013-02-19 05:01:00,10.0,6.0,-100.00,NNW,335,9.0,24.0,83,0.00,,,0.00,0.000000,,2013-02-19 11:01:00,
2013-02-19 05:22:00,10.0,6.0,-100.00,NNW,335,9.0,24.0,83,0.00,,,0.00,0.000000,,2013-02-19 11:22:00,
2013-02-19 05:32:00,10.0,6.0,-100.00,NNW,335,9.0,24.0,83,0.00,,,0.00,0.000000,,2013-02-19 11:32:00,
2013-02-19 05:42:00,10.0,6.0,-100.00,NNW,335,9.0,24.0,83,0.00,,,0.00,0.000000,,2013-02-19 11:42:00,
2013-02-19 05:52:00,10.0,6.0,-100.00,NNW,335,9.0,24.0,83,0.00,,,0.00,0.000000,,2013-02-19 11:52:00,
2013-02-19 06:01:00,9.0,5.0,-100.00,NNW,338,10.0,18.0,82,0.00,,,0.00,0.000000,,2013-02-19 12:01:00,
2013-02-19 06:32:00,9.0,5.0,-100.00,NNW,338,10.0,18.0,82,0.00,,,0.00,0.000000,,2013-02-19 12:32:00,
2013-02-19 06:42:00,9.0,5.0,-100.00,NNW,338,10.0,18.0,82,0.00,,,0.00,0.000000,,2013-02-19 12:42:00,
2013-02-19 06:52:00,9.0,5.0,-100.00,NNW,338,10.0,18.0,82,0.00,,,0.00,0.000000,,2013-02-19 12:52:00,
2013-02-19 07:01:00,8.0,4.0,-100.00,NW,324,9.0,21.0,82,0.00,,,0.00,0.000000,,2013-02-19 13:01:00,
2013-02-19 07:32:00,8.0,4.0,-100.00,NW,324,9.0,21.0,82,0.00,,,0.00,0.000000,,2013-02-19 13:32:00,
2013-02-19 07:42:00,8.0,4.0,-100.00,NW,324,9.0,21.0,82,0.00,,,0.00,0.000000,,2013-02-19 13:42:00,
2013-02-19 07:52:00,8.0,4.0,-100.00,NW,324,9.0,21.0,82,0.00,,,0.00,0.000000,,2013-02-19 13:52:00,
2013-02-19 08:01:00,7.0,2.0,-100.00,NNW,327,8.0,23.0,80,0.00,,,0.00,6.000000,,2013-02-19 14:01:00,
2013-02-19 08:33:00,7.0,2.0,-100.00,NNW,327,8.0,23.0,80,0.00,,,0.00,6.000000,,2013-02-19 14:33:00,
2013-02-19 08:42:00,7.0,2.0,-100.00,NNW,327,8.0,23.0,80,0.00,,,0.00,6.000000,,2013-02-19 14:42:00,
2013-02-19 08:52:00,7.0,2.0,-100.00,NNW,327,8.0,23.0,80,0.00,,,0.00,6.000000,,2013-02-19 14:52:00,
2013-02-19 09:01:00,7.0,2.0,-100.00,NNW,332,9.0,19.0,79,0.00,,,0.00,39.000000,,2013-02-19 15:01:00,
2013-02-19 09:22:00,7.0,2.0,-100.00,NNW,332,9.0,19.0,79,0.00,,,0.00,39.000000,,2013-02-19 15:22:00,
2013-02-19 09:32:00,7.0,2.0,-100.00,NNW,332,9.0,19.0,79,0.00,,,0.00,39.000000,,2013-02-19 15:32:00,
2013-02-19 09:42:00,7.0,2.0,-100.00,NNW,332,9.0,19.0,79,0.00,,,0.00,39.000000,,2013-02-19 15:42:00,
2013-02-19 09:52:00,7.0,2.0,-100.00,NNW,332,9.0,19.0,79,0.00,,,0.00,39.000000,,2013-02-19 15:52:00,
2013-02-19 11:01:00,8.0,2.0,-100.00,NW,326,10.0,28.0,76,-99.99,,,0.00,135.000000,,2013-02-19 17:01:00,
2013-02-19 11:21:00,8.0,2.0,-100.00,NW,326,10.0,28.0,76,-99.99,,,0.00,135.000000,,2013-02-19 17:21:00,
2013-02-19 11:32:00,8.0,2.0,-100.00,NW,326,10.0,28.0,76,-99.99,,,0.00,135.000000,,2013-02-19 17:32:00,
2013-02-19 11:42:00,8.0,2.0,-100.00,NW,326,10.0,28.0,76,-99.99,,,0.00,135.000000,,2013-02-19 17:42:00,
2013-02-19 11:52:00,8.0,2.0,-100.00,NW,326,10.0,28.0,76,-99.99,,,0.00,135.000000,,2013-02-19 17:52:00,
2013-02-19 12:01:00,8.0,2.0,-100.00,NNW,329,11.0,23.0,76,0.00,,,0.00,149.000000,,2013-02-19 18:01:00,
2013-02-19 12:21:00,8.0,2.0,-100.00,NNW,329,11.0,23.0,76,0.00,,,0.00,149.000000,,2013-02-19 18:21:00,
2013-02-19 12:32:00,8.0,2.0,-100.00,NNW,329,11.0,23.0,76,0.00,,,0.00,149.000000,,2013-02-19 18:32:00,
2013-02-19 12:42:00,8.0,2.0,-100.00,NNW,329,11.0,23.0,76,0.00,,,0.00,149.000000,,2013-02-19 18:42:00,
2013-02-19 12:52:00,8.0,2.0,-100.00,NNW,329,11.0,23.0,76,0.00,,,0.00,149.000000,,2013-02-19 18:52:00,
2013-02-19 13:01:00,7.0,1.0,-100.00,NW,313,11.0,21.0,76,0.00,,,0.00,121.000000,,2013-02-19 19:01:00,
2013-02-19 13:22:00,7.0,1.0,-100.00,NW,313,11.0,21.0,76,0.00,,,0.00,121.000000,,2013-02-19 19:22:00,
2013-02-19 13:32:00,7.0,1.0,-100.00,NW,313,11.0,21.0,76,0.00,,,0.00,121.000000,,2013-02-19 19:32:00,
2013-02-19 13:42:00,7.0,1.0,-100.00,NW,313,11.0,21.0,76,0.00,,,0.00,121.000000,,2013-02-19 19:42:00,
2013-02-19 13:52:00,7.0,1.0,-100.00,NW,313,11.0,21.0,76,0.00,,,0.00,121.000000,,2013-02-19 19:52:00,
2013-02-19 14:01:00,6.0,0.0,-100.00,NW,326,11.0,21.0,75,0.00,,,-99.99,139.000000,,2013-02-19 20:01:00,
2013-02-19 14:22:00,6.0,0.0,-100.00,NW,326,11.0,21.0,75,0.00,,,-99.99,139.000000,,2013-02-19 20:22:00,
2013-02-19 14:32:00,6.0,0.0,-100.00,NW,326,11.0,21.0,75,0.00,,,-99.99,139.000000,,2013-02-19 20:32:00,
2013-02-19 14:42:00,6.0,0.0,-100.00,NW,326,11.0,21.0,75,0.00,,,-99.99,139.000000,,2013-02-19 20:42:00,
2013-02-19 14:52:00,6.0,0.0,-100.00,NW,326,11.0,21.0,75,0.00,,,-99.99,139.000000,,2013-02-19 20:52:00,
2013-02-19 15:01:00,6.0,0.0,-100.00,NW,310,8.0,23.0,77,0.00,,,0.00,108.000000,,2013-02-19 21:01:00,
2013-02-19 15:32:00,6.0,0.0,-100.00,NW,310,8.0,23.0,77,0.00,,,0.00,108.000000,,2013-02-19 21:32:00,
2013-02-19 15:42:00,6.0,0.0,-100.00,NW,310,8.0,23.0,77,0.00,,,0.00,108.000000,,2013-02-19 21:42:00,
2013-02-19 15:52:00,6.0,0.0,-100.00,NW,310,8.0,23.0,77,0.00,,,0.00,108.000000,,2013-02-19 21:52:00,
2013-02-19 16:01:00,6.0,0.0,-100.00,NW,317,11.0,22.0,77,0.00,,,0.00,90.000000,,2013-02-19 22:01:00,
2013-02-19 16:32:00,6.0,0.0,-100.00,NW,317,11.0,22.0,77,0.00,,,0.00,90.000000,,2013-02-19 22:32:00,
2013-02-19 16:42:00,6.0,0.0,-100.00,NW,317,11.0,22.0,77,0.00,,,0.00,90.000000,,2013-02-19 22:42:00,
2013-02-19 16:52:00,6.0,0.0,-100.00,NW,317,11.0,22.0,77,0.00,,,0.00,90.000000,,2013-02-19 22:52:00,
2013-02-19 17:01:00,7.0,3.0,-100.00,NW,324,7.0,20.0,82,0.00,,,0.00,30.000000,,2013-02-19 23:01:00,
2013-02-19 17:32:00,7.0,3.0,-100.00,NW,324,7.0,20.0,82,0.00,,,0.00,30.000000,,2013-02-19 23:32:00,
2013-02-19 17:42:00,7.0,3.0,-100.00,NW,324,7.0,20.0,82,0.00,,,0.00,30.000000,,2013-02-19 23:42:00,
2013-02-19 17:52:00,7.0,3.0,-100.00,NW,324,7.0,20.0,82,0.00,,,0.00,30.000000,,2013-02-19 23:52:00,
2013-02-19 18:01:00,8.0,4.0,-100.00,NNW,329,8.0,16.0,83,0.00,,,0.00,3.000000,,2013-02-20 00:01:00,
2013-02-19 18:32:00,8.0,4.0,-100.00,NNW,329,8.0,16.0,83,0.00,,,0.00,3.000000,,2013-02-20 00:32:00,
2013-02-19 18:42:00,8.0,4.0,-100.00,NNW,329,8.0,16.0,83,0.00,,,0.00,3.000000,,2013-02-20 00:42:00,
2013-02-19 18:52:00,8.0,4.0,-100.00,NNW,329,8.0,16.0,83,0.00,,,0.00,3.000000,,2013-02-20 00:52:00,
2013-02-19 19:01:00,9.0,5.0,-100.00,NNW,338,8.0,20.0,84,0.00,,,0.00,0.000000,,2013-02-20 01:01:00,
2013-02-19 19:32:00,9.0,5.0,-100.00,NNW,338,8.0,20.0,84,0.00,,,0.00,0.000000,,2013-02-20 01:32:00,
2013-02-19 19:42:00,9.0,5.0,-100.00,NNW,338,8.0,20.0,84,0.00,,,0.00,0.000000,,2013-02-20 01:42:00,
2013-02-19 19:52:00,9.0,5.0,-100.00,NNW,338,8.0,20.0,84,0.00,,,0.00,0.000000,,2013-02-20 01:52:00,
2013-02-19 20:01:00,9.0,5.0,-100.00,North,350,8.0,18.0,84,0.00,,,0.00,0.000000,,2013-02-20 02:01:00,
2013-02-19 20:22:00,9.0,5.0,-100.00,North,350,8.0,18.0,84,0.00,,,0.00,0.000000,,2013-02-20 02:22:00,
2013-02-19 20:32:00,9.0,5.0,-100.00,North,350,8.0,18.0,84,0.00,,,0.00,0.000000,,2013-02-20 02:32:00,
2013-02-19 20:42:00,9.0,5.0,-100.00,North,350,8.0,18.0,84,0.00,,,0.00,0.000000,,2013-02-20 02:42:00,
2013-02-19 20:52:00,9.0,5.0,-100.00,North,350,8.0,18.0,84,0.00,,,0.00,0.000000,,2013-02-20 02:52:00,
2013-02-19 21:01:00,9.0,5.0,-100.00,NNW,347,8.0,17.0,84,0.00,,,-99.99,0.000000,,2013-02-20 03:01:00,
2013-02-19 21:22:00,9.0,5.0,-100.00,NNW,347,8.0,17.0,84,0.00,,,-99.99,0.000000,,2013-02-20 03:22:00,
2013-02-19 21:32:00,9.0,5.0,-100.00,NNW,347,8.0,17.0,84,0.00,,,-99.99,0.000000,,2013-02-20 03:32:00,
2013-02-19 21:42:00,9.0,5.0,-100.00,NNW,347,8.0,17.0,84,0.00,,,-99.99,0.000000,,2013-02-20 03:42:00,
2013-02-19 21:52:00,9.0,5.0,-100.00,NNW,347,8.0,17.0,84,0.00,,,-99.99,0.000000,,2013-02-20 03:52:00,
2013-02-19 22:01:00,9.0,5.0,-100.00,North,360,7.0,20.0,84,0.00,,,0.00,0.000000,,2013-02-20 04:01:00,
2013-02-19 22:32:00,9.0,5.0,-100.00,North,360,7.0,20.0,84,0.00,,,0.00,0.000000,,2013-02-20 04:32:00,
2013-02-19 22:42:00,9.0,5.0,-100.00,North,360,7.0,20.0,84,0.00,,,0.00,0.000000,,2013-02-20 04:42:00,
2013-02-19 22:52:00,9.0,5.0,-100.00,North,360,7.0,20.0,84,0.00,,,0.00,0.000000,,2013-02-20 04:52:00,
2013-02-19 23:01:00,8.0,4.0,-100.00,North,359,8.0,14.0,83,0.00,,,0.00,0.000000,,2013-02-20 05:01:00,
2013-02-19 23:22:00,8.0,4.0,-100.00,North,359,8.0,14.0,83,0.00,,,0.00,0.000000,,2013-02-20 05:22:00,
2013-02-19 23:32:00,8.0,4.0,-100.00,North,359,8.0,14.0,83,0.00,,,0.00,0.000000,,2013-02-20 05:32:00,
2013-02-19 23:43:00,8.0,4.0,-100.00,North,359,8.0,14.0,83,0.00,,,0.00,0.000000,,2013-02-20 05:43:00,
2013-02-19 23:52:00,8.0,4.0,-100.00,North,359,8.0,14.0,83,0.00,,,0.00,0.000000,,2013-02-20 05:52:00,